Powrót do katalogu

NOAA 16 DEB

AktywnyPO
NORAD 41397·DEBRIS·🇺🇸 United States

Wystrzelony Sep 21, 2000 z Vandenberg Space Force Base

Loading…

Następne Przeloty (najbliższe 24 godziny)

TLE

ŚwieżeSource: Space-Track

Epoka: Sep 13, 2026, 11:42 UTC

1 41397U 00055KA  26256.48770522  .00004593  00000-0  11145-2 0  9995
2 41397  98.9402  86.4382 0028225 200.3985 159.6084 14.53195267548446

Śledź NOAA 16 DEB w czasie rzeczywistym z AllMySat

Download on the App Store